TimeEDT,TemperatureF,Dew PointF,Humidity,Sea Level PressureIn,VisibilityMPH,Wind Direction,Wind SpeedMPH,Gust SpeedMPH,PrecipitationIn,Events,Conditions,WindDirDegrees,DateUTC
12:53 AM,42.1,33.1,70,30.64,10.0,Calm,Calm,-,N/A,,Clear,0,2013-04-22 04:53:00
1:53 AM,41.0,32.0,70,30.64,10.0,Calm,Calm,-,N/A,,Clear,0,2013-04-22 05:53:00
2:53 AM,39.0,33.1,79,30.64,10.0,Calm,Calm,-,N/A,,Clear,0,2013-04-22 06:53:00
3:53 AM,37.9,32.0,79,30.64,10.0,Calm,Calm,-,N/A,,Clear,0,2013-04-22 07:53:00
4:53 AM,37.0,33.1,86,30.65,10.0,Calm,Calm,-,N/A,,Clear,0,2013-04-22 08:53:00
5:53 AM,36.0,32.0,86,30.66,10.0,Calm,Calm,-,N/A,,Clear,0,2013-04-22 09:53:00
6:53 AM,37.0,32.0,82,30.67,10.0,NE,3.5,-,N/A,,Clear,40,2013-04-22 10:53:00
7:53 AM,43.0,34.0,71,30.66,10.0,East,10.4,-,N/A,,Clear,80,2013-04-22 11:53:00
8:53 AM,45.0,30.0,56,30.68,10.0,ESE,8.1,17.3,N/A,,Clear,110,2013-04-22 12:53:00
9:53 AM,46.0,32.0,58,30.68,10.0,East,15.0,-,N/A,,Mostly Cloudy,90,2013-04-22 13:53:00
10:53 AM,48.0,32.0,54,30.67,10.0,East,10.4,19.6,N/A,,Mostly Cloudy,80,2013-04-22 14:53:00
12:53 PM,50.0,32.0,50,30.64,10.0,ESE,9.2,18.4,N/A,,Overcast,120,2013-04-22 16:53:00
1:53 PM,50.0,33.1,52,30.61,10.0,East,10.4,18.4,N/A,,Mostly Cloudy,90,2013-04-22 17:53:00
2:53 PM,50.0,33.1,52,30.59,10.0,East,6.9,17.3,N/A,,Mostly Cloudy,90,2013-04-22 18:53:00
3:53 PM,51.1,32.0,48,30.57,10.0,East,15.0,23.0,N/A,,Mostly Cloudy,80,2013-04-22 19:53:00
4:53 PM,52.0,32.0,47,30.56,10.0,East,13.8,20.7,N/A,,Mostly Cloudy,90,2013-04-22 20:53:00
5:53 PM,52.0,30.0,43,30.54,10.0,ESE,9.2,-,N/A,,Clear,110,2013-04-22 21:53:00
6:53 PM,50.0,30.0,46,30.53,10.0,ESE,10.4,-,N/A,,Clear,120,2013-04-22 22:53:00
7:53 PM,46.9,30.0,52,30.53,10.0,East,9.2,-,N/A,,Clear,80,2013-04-22 23:53:00
8:53 PM,46.0,32.0,58,30.53,10.0,East,8.1,-,N/A,,Clear,90,2013-04-23 00:53:00
9:53 PM,45.0,35.1,68,30.54,10.0,East,9.2,-,N/A,,Clear,90,2013-04-23 01:53:00
10:53 PM,44.1,34.0,68,30.53,10.0,East,10.4,18.4,N/A,,Mostly Cloudy,80,2013-04-23 02:53:00
11:53 PM,43.0,33.1,68,30.52,10.0,East,10.4,20.7,N/A,,Overcast,100,2013-04-23 03:53:00